Погода в Кастаньяле

Бразилия     1°17′09″S   47°54′49″W
темп.,
°C
ветер,
м/с
пор.,
м/с
влажн.,
%
обл.,
%
осадки,
мм/ч
давл.,
гПа
погр.,
м
28 сентября, вт
вт2800:00+22св169916 0.0 1013156
03:00+22св179927 0.0 1011192
06:00+22всв119925 0.0 101235
09:00+28всв257040 0.0 10141060
12:00+29св247036 1.5 1013982
15:00+30ссз236698 3.1 1010967
18:00+23св1598100 5.1 1011158
21:00+23всв189822 5.9 1013232
29 сентября, ср
ср2900:00+22св159922 0.0 1012151
03:00+22св159926 0.0 1010144
06:00+22св169920 0.0 1010145
09:00+26всв278393 0.0 1013608
12:00+30в246485 0.4 10111206
15:00+28всв248771 4.4 1009565
18:00+24св119621 2.3 101034
21:00+23св29975 2.3 1012310
30 сентября, чт
чт3000:00+22св159921 0.0 1012158
03:00+22св299924 0.0 1009272
06:00+22всв199974 0.0 1010280
09:00+28св367342 0.1 10121018
12:00+28св158485 1.9 1010686
15:00+27св2589100 6.1 1009731
18:00+24св2896100 4.3 1009298
21:00+23св1999100 5.6 1011296
1 октября, пт
пт100:00+23св169984 0.0 1011198
03:00+23св179956 0.0 1009222
06:00+22всв189927 0.0 1010251
09:00+28св367097 0.0 10121034
12:00+31в2459100 0.2 10101451
15:00+28с128681 3.0 1008172
18:00+24с119687 2.3 100927
21:00+23св169914 2.3 1010168
2 октября, сб
сб200:00+23ссв179918 0.0 1010208
03:00+22св179932 0.0 1008199
06:00+23св299929 0.0 1009267
09:00+29всв357254 0.0 10111064
12:00+32всв245691 0.1 10101708
15:00+29всв248164 2.9 1008818
18:00+24св27964 2.2 1008173
21:00+23св199916 2.3 1010277